[[{"header":{"parameterUnit":"m.s-1","parameterCategory":1,"la1":30.2991,"la2":30.254,"lo1":-89.0895,"lo2":-89.0444,"dy":0.0017,"dx":0.0017,"nx":28,"ny":28,"refTime":"2023-10-06T21:00:00:Z","depth":0,"parameterNumber":2,"parameterNumberName":"U-component_of_WINDS"},"data":[0,0,0,0,0,0,0,0,0,0,0,0,0,0,0,0,0,0,0,0,0,0,0,0,0,0,0,0,0,0,0,0,0,0,0,0,0,0,0,0,0,0,0,0,0,0,0,0,0,0,0,0,0,0,0,0,0,0,1.2186,1.2188,0,1.2334,1.2335,1.2337,1.233,1.2328,1.2326,1.2324,1.2482,1.2488,1.2494,0,0,0,0,0,0,0,0,0,0,0,0,0,1.1907,1.1912,1.2186,1.2188,1.219,1.2333,1.2335,1.2337,1.233,1.2328,1.2325,1.2323,1.248,1.2487,1.2494,0,0,0,0,0,0,0,0,0,0,0,0,0,1.2039,1.1913,1.2186,1.2203,1.2206,1.2333,1.2335,1.2338,1.2331,1.2328,1.2324,1.2322,1.2477,1.2486,1.2495,1.2616,0,0,1.2524,1.2528,0,0,0,0,0,0,0,0,1.2031,1.2049,1.2199,1.2202,1.2206,1.231,1.2295,1.2431,1.2332,1.2284,1.2324,1.232,1.2428,1.2441,1.2476,1.2623,1.263,1.2524,1.253,1.2534,1.2537,0,0,0,0,0,0,0,1.2022,1.2042,1.2244,1.2201,1.2205,1.2207,1.2222,1.2321,1.2372,1.2288,1.2287,1.2305,1.2429,1.2467,1.2479,1.2633,1.2524,1.2532,1.2538,1.2542,1.2892,1.2895,0,0,0,0,0,0,1.2008,1.2035,1.224,1.2249,1.2109,1.2214,1.2231,1.228,1.2371,1.2381,1.2307,1.2304,1.2452,1.2468,1.2485,1.2635,1.2534,1.2543,1.2548,1.2888,1.2893,1.2897,0,0,0,0,0,0,1.2002,1.2026,1.2234,1.2142,1.2168,1.2222,1.2277,1.2284,1.2322,1.2385,1.2395,1.2336,1.245,1.2472,1.2584,1.264,1.2547,1.2555,1.2884,1.289,1.2895,1.2934,0,0,0,0,0,0,1.1994,1.2024,1.2068,1.2143,1.2173,1.2328,1.228,1.229,1.2337,1.2334,1.2415,1.2425,1.245,1.257,1.2593,1.2651,1.2562,1.2879,1.2886,1.2893,1.2928,1.2941,1.2951,0,0,0,0,0,1.1984,1.2074,1.207,1.2095,1.2229,1.2331,1.2349,1.2373,1.2342,1.2388,1.243,1.2423,1.263,1.2582,1.2608,1.2669,1.2876,1.2884,1.2892,1.2923,1.2938,1.2951,0,0,0,0,0,0,1.2006,1.2084,1.2081,1.2197,1.2257,1.233,1.2389,1.2388,1.246,1.2454,1.2483,1.2502,1.2615,1.2653,1.2598,1.2793,1.2749,1.2763,1.2764,1.2779,1.279,1.2779,1.257,0,0,0,0,0,1.2024,1.2098,1.2163,1.226,1.229,1.2334,1.238,1.2393,1.2458,1.2484,1.2533,1.2598,1.2678,1.273,1.2807,1.2934,1.2954,1.299,1.3001,1.301,1.3022,1.3096,1.3114,1.2924,1.2924,1.2924,0,0,1.2063,1.2115,1.2159,1.2266,1.2314,1.2393,1.2356,1.244,1.25,1.2497,1.2606,1.2645,1.272,1.2841,1.2896,1.2876,1.3079,1.3021,1.3027,1.3035,1.3106,1.3124,1.314,1.293,1.2929,1.2928,0,0,1.2174,1.2219,1.2306,1.2355,1.2429,1.2458,1.2479,1.2552,1.2578,1.2687,1.2688,1.2761,1.2897,1.2952,1.2997,1.3133,1.3131,1.3157,1.3218,1.3289,1.3304,1.3317,1.3369,1.3386,1.3169,1.3169,1.3169,0,1.2213,1.2329,1.2351,1.2437,1.2485,1.2485,1.2576,1.2623,1.2719,1.2754,1.2729,1.2903,1.2953,1.3088,1.3121,1.3157,1.3185,1.3148,1.3299,1.3313,1.3326,1.3375,1.3394,1.3172,1.3172,1.3171,1.3171,0,1.2376,1.2457,1.2519,1.261,1.2665,1.2753,1.2791,1.2845,1.2855,1.2888,1.3003,1.3063,1.3154,1.3187,1.3197,1.3325,1.3311,1.3292,1.3249,1.3347,1.3394,1.3412,1.3176,1.3175,1.3174,1.3174,0,0,1.2504,1.2607,1.263,1.2673,1.2755,1.282,1.291,1.2997,1.3044,1.3111,1.3189,1.3306,1.3291,1.3342,1.3359,1.3422,1.3529,1.3397,1.3399,1.3421,1.3678,1.3692,1.3713,1.3528,1.3531,1.3534,1.3673,0,1.2625,1.2781,1.2805,1.2944,1.3021,1.3024,1.3103,1.3164,1.3198,1.3271,1.331,1.3393,1.3365,1.3397,1.3458,1.3503,1.3582,1.3493,1.3604,1.3608,1.3587,1.3737,1.3752,1.3879,1.3691,1.3694,1.3696,0,1.2787,1.2857,1.3003,1.3078,1.3112,1.3181,1.3265,1.3334,1.3405,1.3426,1.3485,1.3495,1.3592,1.3544,1.368,1.3619,1.3666,1.3696,1.3701,1.3714,1.3659,1.3756,1.392,1.394,1.3725,1.3722,1.372,0,1.2869,1.3,1.3106,1.3142,1.3231,1.3281,1.3321,1.3388,1.344,1.3515,1.355,1.3635,1.3682,1.3749,1.3784,1.3745,1.3919,1.3873,1.3942,1.3941,1.3979,1.3977,1.4155,1.4007,1.4006,1.4006,1.4006,0,1.3003,1.3093,1.3144,1.3209,1.3311,1.334,1.3441,1.348,1.3541,1.3616,1.3624,1.3695,1.3736,1.3814,1.3842,1.3952,1.3973,1.3995,1.4002,1.3995,1.3993,1.4028,1.4021,1.4011,1.401,1.4009,1.4008,0,1.3111,1.3149,1.3264,1.334,1.3361,1.3433,1.3499,1.3565,1.3599,1.3694,1.3719,1.3774,1.3867,1.3907,1.4022,1.4041,1.4168,1.4167,1.4143,1.4146,1.4214,1.4208,1.4422,1.4453,1.4283,1.4284,1.4285,0,1.3195,1.3264,1.3347,1.3397,1.3439,1.3519,1.3572,1.3605,1.366,1.3748,1.3804,1.3896,1.3972,1.4121,1.4173,1.4262,1.4265,1.4334,1.4278,1.4271,1.4269,1.4265,1.4274,1.4344,1.4346,1.4347,1.4348,0,1.334,1.3356,1.3431,1.3515,1.3578,1.3645,1.3711,1.3753,1.3796,1.3859,1.3953,1.4011,1.4129,1.4222,1.4314,1.4359,1.4363,1.4366,1.4387,1.4381,1.4366,1.4378,1.4173,1.4361,1.4359,1.4359,1.4358,1.4357,1.3441,1.3504,1.3573,1.3658,1.3711,1.3773,1.3839,1.3882,1.396,1.4056,1.4072,1.4173,1.4246,1.4371,1.4419,1.4501,1.4485,1.4514,1.4523,1.453,1.4535,1.4351,1.4518,1.4518,1.4517,1.4517,1.4517,0,1.3589,1.3633,1.3711,1.3803,1.3871,1.3866,1.394,1.3998,1.4087,1.4154,1.4228,1.4338,1.443,1.449,1.4583,1.4637,1.4642,1.4661,1.4658,1.4669,1.4543,1.4517,1.4656,1.4656,1.4656,1.4656,1.4656,1.4656,1.3673,1.3781,1.3805,1.3941,1.3986,1.4084,1.4127,1.4186,1.424,1.4362,1.4437,1.4475,1.4541,1.4639,1.4724,1.4739,1.4775,1.4795,1.481,1.4692,1.4678,1.4664,1.4639,1.4802,1.4802,1.493,1.4931,1.4932]},{"header":{"parameterUnit":"m.s-1","parameterCategory":1,"la1":30.2991,"la2":30.254,"lo1":-89.0895,"lo2":-89.0444,"dy":0.0017,"dx":0.0017,"nx":28,"ny":28,"refTime":"2023-10-06T21:00:00:Z","depth":0,"parameterNumber":3,"parameterNumberName":"V-component_of_WINDS"},"data":[0,0,0,0,0,0,0,0,0,0,0,0,0,0,0,0,0,0,0,0,0,0,0,0,0,0,0,0,0,0,0,0,0,0,0,0,0,0,0,0,0,0,0,0,0,0,0,0,0,0,0,0,0,0,0,0,0,0,-3.5993,-3.5992,0,-3.5904,-3.5903,-3.5902,-3.5898,-3.5899,-3.59,-3.5901,-3.5795,-3.5792,-3.5788,0,0,0,0,0,0,0,0,0,0,0,0,0,-3.6147,-3.6144,-3.5993,-3.5992,-3.5991,-3.5904,-3.5903,-3.5901,-3.5898,-3.5899,-3.5901,-3.5902,-3.5797,-3.5792,-3.5787,0,0,0,0,0,0,0,0,0,0,0,0,0,-3.6071,-3.6143,-3.5993,-3.5979,-3.5977,-3.5904,-3.5903,-3.5901,-3.5898,-3.5899,-3.5901,-3.5902,-3.5798,-3.5793,-3.5787,-3.5718,0,0,-3.5769,-3.5767,0,0,0,0,0,0,0,0,-3.6075,-3.6065,-3.5982,-3.598,-3.5977,-3.5914,-3.5918,-3.5839,-3.5897,-3.5927,-3.5901,-3.5903,-3.5833,-3.5824,-3.5803,-3.5713,-3.5709,-3.5769,-3.5765,-3.5763,-3.5761,0,0,0,0,0,0,0,-3.608,-3.6069,-3.5957,-3.5981,-3.5978,-3.5973,-3.5964,-3.5903,-3.5871,-3.5925,-3.5924,-3.5915,-3.5831,-3.5809,-3.5801,-3.5707,-3.5769,-3.5764,-3.576,-3.5758,-3.5554,-3.5552,0,0,0,0,0,0,-3.609,-3.6073,-3.596,-3.5955,-3.6032,-3.5969,-3.5959,-3.5932,-3.5872,-3.5865,-3.5913,-3.5915,-3.5818,-3.5807,-3.5797,-3.5711,-3.5763,-3.5757,-3.5754,-3.5556,-3.5554,-3.5552,0,0,0,0,0,0,-3.6094,-3.608,-3.5964,-3.6014,-3.5999,-3.5964,-3.5935,-3.593,-3.5907,-3.5864,-3.5856,-3.5897,-3.5819,-3.5805,-3.5738,-3.5707,-3.5755,-3.5749,-3.5558,-3.5555,-3.5553,-3.554,0,0,0,0,0,0,-3.6098,-3.6082,-3.6058,-3.6014,-3.5996,-3.591,-3.5933,-3.5927,-3.5899,-3.59,-3.5846,-3.5839,-3.5819,-3.5747,-3.5733,-3.57,-3.5745,-3.5561,-3.5557,-3.5554,-3.5543,-3.5537,-3.5532,0,0,0,0,0,-3.6104,-3.6055,-3.6057,-3.6043,-3.5967,-3.5909,-3.5898,-3.5881,-3.5897,-3.587,-3.5843,-3.584,-3.5714,-3.574,-3.5724,-3.5689,-3.5563,-3.5558,-3.5554,-3.5545,-3.5538,-3.5532,0,0,0,0,0,0,-3.6091,-3.6049,-3.605,-3.5987,-3.5952,-3.5909,-3.5875,-3.5874,-3.583,-3.5832,-3.5808,-3.5796,-3.5729,-3.5703,-3.5733,-3.5619,-3.5639,-3.5632,-3.5638,-3.5631,-3.5626,-3.5632,-3.574,0,0,0,0,0,-3.6082,-3.6043,-3.6006,-3.5953,-3.5937,-3.5909,-3.5883,-3.5873,-3.5834,-3.5818,-3.5785,-3.5743,-3.5694,-3.5661,-3.5614,-3.554,-3.5526,-3.5508,-3.5503,-3.5498,-3.549,-3.5447,-3.5438,-3.5537,-3.5537,-3.5537,0,0,-3.606,-3.6033,-3.6008,-3.595,-3.5922,-3.5878,-3.5896,-3.5849,-3.5814,-3.5809,-3.5745,-3.572,-3.5671,-3.56,-3.5567,-3.5576,-3.5461,-3.5493,-3.549,-3.5484,-3.5442,-3.5432,-3.5424,-3.5534,-3.5535,-3.5535,0,0,-3.5999,-3.5975,-3.5928,-3.5901,-3.5861,-3.5843,-3.5832,-3.5789,-3.5773,-3.571,-3.5705,-3.5662,-3.5578,-3.5544,-3.5515,-3.5443,-3.5437,-3.5427,-3.5397,-3.5355,-3.5347,-3.534,-3.5312,-3.5302,-3.5421,-3.5421,-3.542,0,-3.5975,-3.5913,-3.5903,-3.5856,-3.5829,-3.5829,-3.5779,-3.5751,-3.5694,-3.5674,-3.5687,-3.5582,-3.5549,-3.547,-3.5453,-3.5431,-3.5414,-3.5432,-3.5351,-3.5343,-3.5336,-3.5308,-3.5298,-3.5419,-3.542,-3.542,-3.542,0,-3.5886,-3.5843,-3.5809,-3.576,-3.573,-3.5681,-3.566,-3.5629,-3.5623,-3.5603,-3.5537,-3.5499,-3.5443,-3.5424,-3.5415,-3.5342,-3.5349,-3.5357,-3.5376,-3.5326,-3.5299,-3.5289,-3.5418,-3.5418,-3.5418,-3.5419,0,0,-3.5809,-3.5759,-3.5746,-3.5724,-3.568,-3.5644,-3.5595,-3.5546,-3.5519,-3.548,-3.5435,-3.5366,-3.5373,-3.5341,-3.5328,-3.5292,-3.5234,-3.5303,-3.5302,-3.5289,-3.5149,-3.5142,-3.513,-3.5233,-3.5231,-3.5229,-3.5152,0,-3.5741,-3.5658,-3.5648,-3.5572,-3.5531,-3.553,-3.5487,-3.5453,-3.5433,-3.5391,-3.5368,-3.5318,-3.5333,-3.5313,-3.5278,-3.5249,-3.5205,-3.5255,-3.5186,-3.5184,-3.5195,-3.5117,-3.5108,-3.5038,-3.5142,-3.514,-3.5139,0,-3.5648,-3.5613,-3.5535,-3.5497,-3.5479,-3.5441,-3.5395,-3.5357,-3.5317,-3.5305,-3.5271,-3.5263,-3.5208,-3.5233,-3.5154,-3.5188,-3.516,-3.5141,-3.5138,-3.5127,-3.5156,-3.5101,-3.5015,-3.5003,-3.5123,-3.5124,-3.5126,0,-3.5597,-3.553,-3.5474,-3.5455,-3.5411,-3.5384,-3.5363,-3.5326,-3.5297,-3.5255,-3.5236,-3.5187,-3.5158,-3.5119,-3.5096,-3.5117,-3.5018,-3.5042,-3.5002,-3.5002,-3.4978,-3.4979,-3.4882,-3.4965,-3.4965,-3.4965,-3.4966,0,-3.5519,-3.547,-3.5451,-3.5416,-3.5361,-3.5349,-3.5293,-3.5272,-3.5239,-3.5197,-3.5193,-3.5153,-3.5128,-3.5083,-3.5065,-3.5001,-3.4988,-3.4974,-3.4969,-3.4972,-3.4974,-3.495,-3.4953,-3.4963,-3.4963,-3.4964,-3.4964,0,-3.5451,-3.5437,-3.5376,-3.5341,-3.5331,-3.5291,-3.5259,-3.5223,-3.5205,-3.5152,-3.5139,-3.5109,-3.5056,-3.5031,-3.4964,-3.4952,-3.4878,-3.4877,-3.4892,-3.489,-3.485,-3.4853,-3.4732,-3.4715,-3.4813,-3.4812,-3.4811,0,-3.5401,-3.5364,-3.5327,-3.5301,-3.5281,-3.5239,-3.5211,-3.5198,-3.5168,-3.5121,-3.509,-3.5038,-3.4996,-3.491,-3.4879,-3.4827,-3.4824,-3.4785,-3.4815,-3.482,-3.4819,-3.482,-3.4815,-3.4778,-3.4777,-3.4776,-3.4776,0,-3.5312,-3.5307,-3.527,-3.523,-3.5198,-3.5164,-3.5131,-3.5109,-3.5089,-3.5055,-3.5004,-3.4972,-3.4906,-3.4853,-3.48,-3.4773,-3.4769,-3.4768,-3.4755,-3.4756,-3.4765,-3.4757,-3.4874,-3.4769,-3.477,-3.477,-3.4771,-3.4771,-3.5248,-3.5216,-3.5185,-3.5143,-3.5118,-3.5087,-3.5052,-3.5033,-3.4991,-3.494,-3.4934,-3.4878,-3.4838,-3.4768,-3.474,-3.4693,-3.4701,-3.4683,-3.4678,-3.4673,-3.467,-3.4777,-3.4683,-3.4683,-3.4683,-3.4683,-3.4684,0,-3.5157,-3.5138,-3.51,-3.5056,-3.5022,-3.503,-3.4993,-3.4963,-3.4916,-3.4882,-3.4842,-3.4782,-3.4731,-3.4698,-3.4646,-3.4614,-3.4611,-3.46,-3.46,-3.4594,-3.4667,-3.4682,-3.4604,-3.4604,-3.4604,-3.4604,-3.4604,-3.4604,-3.5105,-3.5049,-3.5041,-3.4972,-3.4953,-3.4902,-3.4881,-3.4851,-3.4824,-3.476,-3.472,-3.4701,-3.4666,-3.4611,-3.4564,-3.4555,-3.4534,-3.4523,-3.4513,-3.4581,-3.4589,-3.4597,-3.461,-3.4519,-3.4519,-3.4444,-3.4443,-3.4443]}]]